Simultaneous Nadir Overpasses (SNOs) Predictions

Prediction of SNOs between NPP and TERRA Satellite Orbit:

Table of predicted SNOs for the next 14.0 days since TLE Epoch: 12/17/2014
Index Date (NPP) Time (NPP) Lat,Lon (NPP) SZA (NPP ) Date (TERRA) Time (TERRA) Lat,Lon (TERRA) SZA (TERRA ) Distance(km) Time Diff (sec)
1 12/17/2014 21:09:21 69.77,-138.50 93.03 12/17/2014 21:10:31 69.68,-137.26 92.95 48.70 70
2 12/17/2014 21:59:53 -69.16, 29.68 87.58 12/17/2014 22:00:08 -69.18, 29.70 87.56 2.42 15
3 12/17/2014 22:50:37 69.03,-162.83 92.29 12/17/2014 22:49:36 69.03,-162.85 92.28 1.02 61
4 12/20/2014 13:26:02 69.21, -21.94 92.53 12/20/2014 13:27:10 69.23, -21.99 92.55 2.93 68
5 12/20/2014 14:16:44 -69.14, 145.48 87.55 12/20/2014 14:16:40 -69.12, 145.50 87.57 2.30 4
6 12/20/2014 15:07:22 68.74, -46.67 92.06 12/20/2014 15:06:10 68.79, -47.28 92.11 25.01 72
7 12/23/2014 05:42:52 69.20, 93.85 92.52 12/23/2014 05:43:40 69.19, 93.83 92.51 1.60 48
8 12/23/2014 06:33:33 -69.08, -98.65 87.61 12/23/2014 06:33:10 -69.08, -98.68 87.61 1.20 23
9 12/23/2014 07:24:00 68.03, 70.02 91.35 12/23/2014 07:22:53 68.08, 67.74 91.40 95.01 67
10 12/25/2014 21:59:42 69.15,-150.30 92.41 12/25/2014 22:00:10 69.18,-150.31 92.44 2.77 28
11 12/25/2014 22:50:24 -69.07, 17.12 87.67 12/25/2014 22:49:40 -69.07, 17.18 87.68 2.51 44
12 12/28/2014 13:25:57 -69.71, 157.37 87.13 12/28/2014 13:27:07 -69.57, 158.45 87.28 44.42 70
13 12/28/2014 14:16:32 69.11, -34.47
